DW9924 Weather Reports


Display with metric or nautical units.
time (UTC)temp
F
wind
direction
speed
MPH
gust
MPH
rain 1hr
in
rain 24hr
in
rain mn
in
humidity
%
barometer
mb
20260904171905 81 219 0.0 1.0 0.00 0.00 0.00 70 1018.6
20260904171405 81 219 0.0 0.0 0.00 0.00 0.00 70 1018.7
20260904170905 81 219 0.0 1.0 0.00 0.00 0.00 69 1018.7
20260904170406 82 219 0.0 3.0 0.00 0.00 0.00 70 1018.7
20260904164906 82 221 1.0 2.0 0.00 0.00 0.00 67 1018.9
20260904163905 82 250 0.0 3.0 0.00 0.00 0.00 69 1018.9
20260904161405 82 222 1.0 3.0 0.00 0.00 0.00 67 1018.9
20260904160905 82 223 2.0 3.0 0.00 0.00 0.00 68 1019.0
20260904160405 83 179 1.0 3.0 0.00 0.00 0.00 69 1019.0
20260904154904 83 226 1.0 3.0 0.00 0.00 0.00 71 1019.1
20260904154406 83 225 1.0 3.0 0.00 0.00 0.00 72 1019.1
20260904153905 83 232 2.0 5.0 0.00 0.00 0.00 71 1019.1
20260904153405 84 223 1.0 6.0 0.00 0.00 0.00 71 1019.1
20260904151406 84 161 1.0 3.0 0.00 0.00 0.00 71 1019.1
20260904150905 84 178 2.0 3.0 0.00 0.00 0.00 72 1019.2
20260904150407 84 149 1.0 3.0 0.00 0.00 0.00 72 1019.2
20260904144905 85 171 1.0 3.0 0.00 0.00 0.00 69 1019.4
20260904144404 85 187 1.0 3.0 0.00 0.00 0.00 71 1019.4
20260904143905 85 153 1.0 3.0 0.00 0.00 0.00 70 1019.5
20260904143405 84 132 1.0 3.0 0.00 0.00 0.00 71 1019.5
20260904141905 85 217 1.0 3.0 0.00 0.00 0.00 68 1019.7
20260904141405 85 184 2.0 3.0 0.00 0.00 0.00 68 1019.8
20260904140905 84 216 2.0 3.0 0.00 0.00 0.00 67 1019.7
20260904140420 85 240 2.0 5.0 0.00 0.00 0.00 68 1019.7
20260904134904 85 222 2.0 3.0 0.00 0.00 0.00 68 1019.6
20260904134405 84 177 1.0 3.0 0.00 0.00 0.00 70 1019.6
20260904133904 84 150 1.0 2.0 0.00 0.00 0.00 70 1019.6
20260904133405 85 144 1.0 3.0 0.00 0.00 0.00 69 1019.6
20260904131910 84 169 2.0 5.0 0.00 0.00 0.00 69 1019.6
20260904131405 85 197 2.0 5.0 0.00 0.00 0.00 68 1019.6
20260904130905 85 181 1.0 3.0 0.00 0.00 0.00 67 1019.7
20260904124905 84 163 1.0 3.0 0.00 0.00 0.00 68 1019.8
20260904124404 84 228 3.0 5.0 0.00 0.00 0.00 66 1019.9
20260904123905 85 207 2.0 3.0 0.00 0.00 0.00 65 1019.9
20260904123404 85 186 1.0 3.0 0.00 0.00 0.00 67 1019.9
20260904121905 85 200 1.0 3.0 0.00 0.00 0.00 66 1020.0
20260904121405 85 148 1.0 6.0 0.00 0.00 0.00 67 1020.0
20260904120905 85 210 1.0 3.0 0.00 0.00 0.00 67 1020.0
20260904120404 83 182 2.0 5.0 0.00 0.00 0.00 68 1020.0
20260904114407 86 181 0.0 5.0 0.00 0.00 0.00 65 1019.9
20260904113904 85 202 2.0 5.0 0.00 0.00 0.00 66 1019.9
20260904113404 84 204 1.0 3.0 0.00 0.00 0.00 67 1020.0
20260904111908 85 181 1.0 3.0 0.00 0.00 0.00 66 1020.0
20260904110405 84 193 2.0 5.0 0.00 0.00 0.00 66 1020.0
20260904104905 84 228 2.0 3.0 0.00 0.00 0.00 67 1020.0
20260904104404 84 142 1.0 2.0 0.00 0.00 0.00 68 1020.0
20260904103904 84 164 1.0 2.0 0.00 0.00 0.00 70 1020.0
20260904103408 84 157 1.0 3.0 0.00 0.00 0.00 71 1020.0
20260904101404 83 172 1.0 3.0 0.00 0.00 0.00 71 1020.1
20260904100909 83 202 1.0 3.0 0.00 0.00 0.00 72 1020.1
20260904094904 83 221 1.0 3.0 0.00 0.00 0.00 74 1020.4
20260904094404 82 225 1.0 5.0 0.00 0.00 0.00 73 1020.4
20260904093905 83 243 1.0 5.0 0.00 0.00 0.00 72 1020.3
20260904093407 83 253 1.0 5.0 0.00 0.00 0.00 73 1020.2
20260904091407 82 231 1.0 3.0 0.00 0.00 0.00 75 1020.3
20260904090907 82 233 2.0 3.0 0.00 0.00 0.00 74 1020.3
20260904090407 82 229 1.0 3.0 0.00 0.00 0.00 74 1020.4
20260904084907 81 96 0.0 2.0 0.00 0.00 0.00 74 1020.1
20260904084407 81 145 1.0 2.0 0.00 0.00 0.00 74 1020.1
20260904083906 81 165 1.0 3.0 0.00 0.00 0.00 74 1020.0
20260904083407 81 165 1.0 3.0 0.00 0.00 0.00 74 1020.0
20260904081907 80 155 1.0 3.0 0.00 0.00 0.00 75 1019.9
20260904081406 80 163 1.0 2.0 0.00 0.00 0.00 75 1020.0
20260904080406 80 211 0.0 2.0 0.00 0.00 0.00 75 1020.0
20260904074407 83 178 0.0 1.0 0.00 0.00 0.00 73 1019.8
20260904073907 82 178 0.0 1.0 0.00 0.00 0.00 73 1019.9
20260904073407 82 178 0.0 1.0 0.00 0.00 0.00 74 1019.9
20260904071906 80 178 0.0 1.0 0.00 0.00 0.00 77 1019.8
20260904071407 79 261 0.0 1.0 0.00 0.00 0.00 78 1019.7
20260904070907 78 23 0.0 0.0 0.00 0.00 0.00 78 1019.7
20260904070406 77 23 0.0 0.0 0.00 0.00 0.00 79 1019.6
20260904064907 76 23 0.0 0.0 0.00 0.00 0.00 80 1019.4
20260904064407 75 23 0.0 1.0 0.00 0.00 0.00 81 1019.4
20260904063907 75 23 0.0 1.0 0.00 0.00 0.00 81 1019.3
20260904063407 75 23 1.0 3.0 0.00 0.00 0.00 82 1019.3
20260904061907 74 30 1.0 2.0 0.00 0.00 0.00 81 1019.2
20260904061406 74 33 1.0 2.0 0.00 0.00 0.00 81 1019.2
20260904060907 74 42 2.0 2.0 0.00 0.00 0.00 81 1019.2
20260904060406 74 58 1.0 3.0 0.00 0.00 0.00 81 1019.3
20260904054907 73 41 2.0 3.0 0.00 0.00 0.00 81 1019.3
20260904054407 73 26 2.0 3.0 0.00 0.00 0.00 81 1019.4
20260904053906 74 34 2.0 3.0 0.00 0.00 0.00 82 1019.3
20260904053406 74 33 2.0 3.0 0.00 0.00 0.00 82 1019.3
20260904051906 73 21 2.0 3.0 0.00 0.00 0.00 82 1019.3
20260904051409 73 29 2.0 2.0 0.00 0.00 0.00 82 1019.3
20260904050907 73 34 2.0 3.0 0.00 0.00 0.00 81 1019.2
20260904050406 74 30 2.0 3.0 0.00 0.00 0.00 81 1019.2
20260904044907 74 27 1.0 2.0 0.00 0.00 0.00 80 1018.9
20260904044406 74 27 1.0 2.0 0.00 0.00 0.00 79 1018.9
20260904043906 74 24 2.0 3.0 0.00 0.00 0.00 77 1018.8
20260904043407 74 26 2.0 3.0 0.00 0.00 0.00 76 1018.8
20260904041906 74 21 2.0 3.0 0.00 0.00 0.00 78 1018.8
20260904040906 74 18 1.0 3.0 0.00 0.00 0.00 78 1018.6
20260904040406 75 27 2.0 3.0 0.00 0.00 0.00 77 1018.6
20260904034907 75 43 2.0 3.0 0.00 0.00 0.00 78 1018.7
20260904034406 75 43 2.0 3.0 0.00 0.00 0.00 77 1018.7
20260904033906 75 35 2.0 3.0 0.00 0.00 0.00 74 1018.7
20260904033407 74 74 1.0 3.0 0.00 0.00 0.00 71 1018.8
20260904031906 74 53 3.0 3.0 0.00 0.00 0.00 71 1018.7
20260904031406 74 66 1.0 3.0 0.00 0.00 0.00 73 1018.7
20260904030406 74 28 2.0 3.0 0.00 0.00 0.00 76 1018.7
20260904024906 74 34 2.0 3.0 0.00 0.00 0.00 72 1018.8
20260904024406 75 23 2.0 3.0 0.00 0.00 0.00 73 1018.8
20260904023906 75 36 2.0 3.0 0.00 0.00 0.00 74 1018.7
20260904023406 75 38 1.0 2.0 0.00 0.00 0.00 73 1018.7
20260904021906 75 39 1.0 2.0 0.00 0.00 0.00 71 1018.7
20260904021407 75 32 2.0 2.0 0.00 0.00 0.00 71 1018.7
20260904020906 75 43 1.0 3.0 0.00 0.00 0.00 70 1018.7
20260904020406 75 47 2.0 3.0 0.00 0.00 0.00 70 1018.7
20260904014905 75 49 1.0 2.0 0.00 0.00 0.00 71 1018.7
20260904014406 75 49 1.0 3.0 0.00 0.00 0.00 71 1018.7
20260904013906 75 51 2.0 3.0 0.00 0.00 0.00 71 1018.7
20260904013406 75 41 1.0 3.0 0.00 0.00 0.00 71 1018.6
20260904011906 75 34 1.0 3.0 0.00 0.00 0.00 71 1018.8
20260904011406 75 37 1.0 2.0 0.00 0.00 0.00 70 1018.8
20260904010905 75 30 1.0 2.0 0.00 0.00 0.00 70 1018.8
20260904010406 75 44 1.0 3.0 0.00 0.00 0.00 69 1018.8
20260904004906 75 45 1.0 3.0 0.00 0.00 0.00 68 1018.7
20260904003406 75 29 2.0 3.0 0.00 0.00 0.00 69 1018.7
20260904001906 75 36 1.0 3.0 0.00 0.00 0.00 69 1018.8
20260904000905 75 31 2.0 3.0 0.00 0.00 0.00 69 1018.9
20260903234407 75 35 2.0 2.0 0.00 0.00 0.00 72 1018.9
20260903233908 76 35 2.0 3.0 0.00 0.00 0.00 72 1018.9
20260903233406 75 39 1.0 3.0 0.00 0.00 0.00 71 1018.9
20260903231906 75 29 1.0 2.0 0.00 0.00 0.00 69 1018.8
20260903231406 76 30 1.0 2.0 0.00 0.00 0.00 69 1018.8
20260903224905 76 26 2.0 3.0 0.00 0.00 0.00 69 1019.0
20260903224422 76 37 2.0 3.0 0.00 0.00 0.00 69 1018.9
20260903223407 76 25 2.0 3.0 0.00 0.00 0.00 70 1018.9
20260903221905 76 45 1.0 2.0 0.00 0.00 0.00 70 1018.8
20260903220906 76 51 2.0 3.0 0.00 0.00 0.00 70 1018.9
20260903220405 76 56 1.0 3.0 0.00 0.00 0.00 69 1019.0
20260903213909 75 27 1.0 3.0 0.00 0.00 0.00 74 1018.9
20260903211908 76 38 2.0 2.0 0.00 0.00 0.00 80 1019.0
20260903211406 76 31 2.0 3.0 0.00 0.00 0.00 81 1019.0
20260903210405 76 25 2.0 3.0 0.00 0.00 0.00 82 1019.0
20260903204405 77 24 1.0 2.0 0.00 0.00 0.00 80 1019.0
20260903203908 77 39 1.0 2.0 0.00 0.00 0.00 79 1018.9
20260903203406 77 38 1.0 3.0 0.00 0.00 0.00 78 1018.9
20260903201906 76 29 1.0 3.0 0.00 0.00 0.00 76 1018.9
20260903201405 76 24 2.0 3.0 0.00 0.00 0.00 76 1018.9
20260903200906 76 27 2.0 3.0 0.00 0.00 0.00 77 1018.9
20260903193905 77 28 2.0 3.0 0.00 0.00 0.00 77 1018.8
20260903193405 77 36 1.0 3.0 0.00 0.00 0.00 77 1018.8
20260903191906 77 37 1.0 2.0 0.00 0.00 0.00 77 1018.8
20260903190905 77 36 1.0 2.0 0.00 0.00 0.00 77 1018.8
20260903190406 77 47 1.0 3.0 0.00 0.00 0.00 77 1018.8
20260903184905 78 11 0.0 2.0 0.00 0.00 0.00 78 1018.6
20260903184405 78 28 1.0 2.0 0.00 0.00 0.00 78 1018.7
20260903183905 78 28 1.0 2.0 0.00 0.00 0.00 78 1018.6
20260903183405 78 37 2.0 3.0 0.00 0.00 0.00 78 1018.5
20260903181905 79 44 1.0 2.0 0.00 0.00 0.00 78 1018.5
20260903181405 79 36 1.0 3.0 0.00 0.00 0.00 78 1018.4
20260903180905 80 0 0.0 2.0 0.00 0.00 0.00 78 1018.4
20260903180405 80 0 0.0 2.0 0.00 0.00 0.00 78 1018.4
20260903174905 81 14 0.0 1.0 0.00 0.00 0.00 78 1018.4
20260903174406 81 53 0.0 1.0 0.00 0.00 0.00 77 1018.3
20260903173905 81 53 0.0 1.0 0.00 0.00 0.00 77 1018.3
20260903173405 81 301 0.0 3.0 0.00 0.00 0.00 76 1018.3